This is the latest recevied weather packets stored in our database for station/object VE9LJW. If no packets are shown the sender has not sent any weather packets the latest 10 day(s).
| Time | Temp. | Humidity | Pressure | Rain* | Wind** | Luminosity | Snow |
|---|---|---|---|---|---|---|---|
| 1777976647 | 10.56° C | 92% | 1006 hPa | 0 mm | - | 35 W/m² | - |
| 1777976343 | 10.56° C | 92% | 1005.8 hPa | 0 mm | - | 29 W/m² | - |
| 1777976037 | 10.56° C | 92% | 1005.8 hPa | 0 mm | - | 27 W/m² | - |
| 1777975734 | 10.56° C | 92% | 1005.7 hPa | 0 mm | - | 42 W/m² | - |
| 1777975430 | 10.56° C | 92% | 1005.7 hPa | 0 mm | - | 34 W/m² | - |
| 1777975126 | 10.56° C | 93% | 1005.6 hPa | 0 mm | - | 34 W/m² | - |
| 1777974824 | 10° C | 94% | 1005.4 hPa | 0 mm | - | 37 W/m² | - |
| 1777974519 | 10° C | 95% | 1005.5 hPa | 0 mm | - | 22 W/m² | - |
| 1777974216 | 10° C | 95% | 1005.5 hPa | 0 mm | - | 15 W/m² | - |
| 1777973912 | 10° C | 95% | 1005.4 hPa | 0 mm | - | 10 W/m² | - |
| 1777973610 | 10° C | 95% | 1005.4 hPa | 0 mm | - | 6 W/m² | - |
| 1777973307 | 10° C | 95% | 1005.6 hPa | 0 mm | - | 4 W/m² | - |
| 1777973005 | 10° C | 95% | 1005.5 hPa | 0 mm | - | 2 W/m² | - |
| 1777972702 | 10° C | 95% | 1005.6 hPa | 0 mm | - | 1 W/m² | - |
| 1777972400 | 10° C | 95% | 1005.6 hPa | 0 mm | - | 0 W/m² | - |
| 1777972098 | 9.44° C | 97% | 1005.5 hPa | 0 mm | - | 0 W/m² | - |
| 1777971796 | 10° C | 97% | 1005.4 hPa | 0 mm | - | 0 W/m² | - |
| 1777971493 | 10° C | 97% | 1005.7 hPa | 0 mm | - | 0 W/m² | - |
| 1777971190 | 10° C | 97% | 1005.6 hPa | 0 mm | - | 0 W/m² | - |
| 1777970888 | 10° C | 98% | 1005.4 hPa | 0 mm | - | 0 W/m² | - |
| 1777970587 | 10° C | 99% | 1005.4 hPa | 0 mm | - | 0 W/m² | - |
| 1777970283 | 9.44° C | 99% | 1005.5 hPa | 0 mm | - | 0 W/m² | - |
| 1777969980 | 9.44° C | 98% | 1005.6 hPa | 0 mm | - | 0 W/m² | - |
| 1777969676 | 9.44° C | 98% | 1005.7 hPa | 0 mm | - | 0 W/m² | - |
| 1777969373 | 10° C | 98% | 1005.8 hPa | 0 mm | - | 0 W/m² | - |
* Rain latest hour (hover to see other rain measurements)
** Current wind speed in m/s (hover to see current wind gust speed)